Vertical_Velocity
5 2 -3 -3 1 -0 2 24 -6 2 0 -2 3 2 2 4 3 -0 1 0 -2 -0
8 2 -3 0 -0 -0 -1 11 -2 -2 1 -2 -2 2 3 5 -0 2 3 3 1 -1
7 -0 -2 -3 2 3 -1 3 1 -0 -3 4 -1 2 3 -2 2 1 0 3 6 2
-2 -0 2 -5 -2 -5 -2 -1 -1 -3 3 -3 -2 -3 1 1 1 3 3 2 2 2
0 1 1 -1 0 -3 -5 -5 -3 -2 -1 0 0 -1 1 -2 1 2 2 1 -2 -1
3 1 2 2 3 1 -0 1 -3 -2 0 -0 -1 -1 -0 -1 -3 -0 3 5 2 0
-0 1 1 6 4 2 2 -6 0 0 2 0 -0 -2 -5 -3 -2 -1 0 1 2 5
-2 -0 0 3 1 2 2 1 0 -1 1 0 -1 1 -1 -0 -0 -1 -0 1 0 1
0 -1 -2 1 2 3 3 2 3 -1 0 -0 -1 -3 -2 -3 -3 -1 -1 -1 0 -1
2 1 2 2 2 3 3 1 1 0 -0 1 1 -0 -0 2 0 -0 1 1 0 -1
1 3 4 4 0 -1 1 -1 -2 1 -0 0 -3 -2 -3 -1 3 4 2 2 1 1
1 4 2 5 5 1 -2 -1 -2 0 4 1 -1 2 -1 -1 0 1 -0 -1 -2 -2
1 2 1 4 4 1 3 1 0 -1 -3 -0 -2 2 1 0 -1 1 -0 1 -1 4
1 5 4 0 -0 -1 0 -0 -1 -1 2 -1 2 2 0 -1 -2 -2 -0 -0 -0 2
Height
5625 5625 5626 5623 5622 5624 5625 5628 5634 5634 5634 5634 5634 5634 5634 5633 5634 5635 5639 5644 5649 5652
5615 5614 5616 5615 5614 5615 5617 5621 5623 5624 5625 5626 5626 5625 5624 5622 5622 5623 5625 5630 5634 5638
5606 5605 5605 5606 5607 5608 5609 5612 5614 5616 5617 5618 5618 5617 5614 5612 5610 5611 5612 5616 5621 5624
5599 5596 5595 5597 5599 5602 5602 5603 5605 5607 5609 5610 5609 5607 5605 5602 5600 5599 5600 5603 5607 5612
5593 5589 5586 5587 5589 5592 5595 5595 5596 5599 5600 5601 5600 5599 5596 5594 5592 5590 5589 5593 5596 5599
5584 5583 5580 5580 5582 5583 5585 5587 5588 5590 5591 5591 5591 5590 5589 5587 5584 5582 5581 5583 5584 5585
5574 5574 5574 5573 5574 5576 5577 5578 5580 5580 5581 5581 5581 5580 5579 5577 5575 5574 5573 5573 5574 5575
5566 5564 5564 5563 5565 5566 5567 5568 5569 5570 5570 5570 5570 5569 5567 5566 5566 5565 5565 5565 5565 5565
5555 5555 5555 5554 5555 5555 5556 5557 5558 5559 5560 5560 5559 5558 5557 5556 5556 5555 5554 5554 5553 5553
5545 5545 5546 5546 5547 5547 5549 5549 5549 5550 5550 5550 5549 5548 5547 5546 5545 5545 5544 5543 5543 5543
5537 5537 5538 5540 5542 5543 5542 5543 5543 5543 5542 5543 5542 5540 5538 5536 5535 5533 5533 5531 5530 5530
5534 5534 5536 5537 5539 5539 5540 5540 5539 5539 5538 5537 5536 5534 5532 5531 5529 5526 5525 5523 5521 5520
5532 5533 5534 5535 5536 5536 5536 5537 5537 5536 5535 5533 5531 5529 5528 5526 5524 5521 5520 5517 5515 5513
5532 5533 5532 5533 5534 5535 5535 5534 5534 5532 5531 5530 5527 5526 5525 5522 5520 5517 5514 5512 5510 5509